SCP
-0 -0 0 0 0 0 0 0 0 0 0 0 0 0 0 0 0 0 0 0 0 0 0 0 0 0 0 0 0 0 0 0 0 0 0 0 0 0 0 0 0 0 0 0
-0 0 0 0 -0 0 0 0 0 0 0 0 0 0 0 0 0 0 0 0 0 0 0 0 0 0 0 0 0 0 0 0 0 0 0 0 0 0 0 0 0 0 0 0
-0 0 0 0 0 0 0 0 0 0 0 0 0 0 0 0 0 0 0 0 0 0 0 0 0 0 0 0 0 0 0 0 0 0 0 0 0 0 0 0 0 0 0 0
-0 0 0 0 0 0 0 0 -0 0 0 0 0 0 0 0 0 0 0 0 0 0 0 0 0 0 0 0 0 0 0 0 0 0 0 0 0 0 0 0 0 0 0 0
0 0 0 0 0 0 0 0 0 0 0 0 0 0 0 0 0 0 0 0 0 0 0 0 0 0 0 0 0 0 0 0 0 0 0 0 0 0 0 0 0 0 0 0
0 0 0 0 0 0 0 0 0 0 0 0 0 0 0 0 0 0 0 0 0 0 0 0 0 0 0 0 0 0 0 0 0 0 0 0 0 0 0 0 0 0 0 0
0 0 0 0 -0 0 0 0 0 0 0 0 0 0 0 0 0 0 0 0 0 0 0 0 0 0 0 0 0 0 0 0 0 0 0 0 0 0 0 0 0 0 0 0
0 0 0 0 0 0 0 0 0 0 0 0 0 0 0 0 0 0 0 0 0 0 0 0 0 0 0 0 0 0 0 0 0 0 0 0 0 0 0 0 0 0 0 0
0 0 0 0 0 0 0 0 0 -0 -0 -0 0 0 0 0 0 0 0 0 0 0 0 0 0 0 0 0 0 0 0 0 0 0 0 0 0 0 0 0 0 0 0 0
0 0 0 0 0 0 0 0 0 0 0 0 0 0 0 0 0 0 0 0 0 0 0 0 0 0 0 0 0 0 0 0 0 0 0 0 0 0 0 0 0 0 0 0
0 0 0 0 0 0 0 0 0 0 0 0 0 0 0 0 0 0 0 0 0 0 0 0 0 0 0 0 0 0 0 0 0 0 0 0 0 0 0 0 0 0 0 0
0 -0 0 0 0 0 0 0 0 0 0 0 0 0 0 0 0 0 0 0 0 0 0 0 0 0 0 0 0 0 0 0 0 0 0 0 0 0 0 0 0 0 0 0
0 -0 -0 0 0 0 0 0 0 0 0 0 0 0 0 0 0 0 0 0 0 0 0 0 0 0 0 0 0 0 0 0 0 0 0 0 0 0 0 0 0 0 0 0
-0 -0 0 0 0 0 0 0 0 0 0 0 0 0 0 0 0 0 0 0 0 0 0 0 0 0 0 0 0 0 0 0 0 0 0 0 0 0 0 0 0 0 0 0
0 0 0 0 0 0 0 0 0 0 0 0 0 0 0 0 0 0 0 0 0 0 0 0 0 0 0 0 0 0 0 0 0 0 0 0 0 0 0 0 0 0 0 0
0 0 0 0 0 0 0 0 0 0 0 0 0 0 0 0 0 0 0 0 0 0 0 0 0 0 0 0 0 0 0 0 0 0 0 0 0 0 0 0 0 0 0 0
0 0 0 0 0 0 0 0 0 0 0 0 0 0 0 0 0 0 0 0 0 0 0 0 0 0 0 0 0 0 0 0 0 0 0 0 0 0 0 0 0 0 0 0
0 0 0 0 0 0 0 0 0 0 0 0 0 0 0 -0 0 0 0 0 0 0 0 0 0 0 0 0 0 0 0 0 0 0 0 0 0 0 0 0 0 0 0 0
0 0 0 0 0 0 0 0 0 0 0 0 -0 0 0 -0 0 0 0 0 0 0 0 0 0 0 0 0 0 0 0 0 -0 -0 0 0 0 0 0 0 0 0 0 0
0 0 0 0 0 0 0 0 0 0 0 0 0 0 -0 -0 0 0 0 0 0 0 0 0 0 0 0 0 0 -0 -0 0 0 0 0 0 0 0 0 0 0 0 0 0
0 -0 -0 0 0 0 0 0 0 0 0 0 -0 -0 0 0 0 0 0 0 0 0 0 0 0 0 0 0 0 0 0 0 0 0 0 0 0 0 0 0 0 0 0 0
0 0 0 0 0 0 0 0 0 0 -0 -0 -0 -0 0 0 0 0 0 0 0 0 0 0 0 0 0 -0 -0 0 -0 0 0 0 0 0 0 0 0 0 0 0 0 0
0 0 0 0 0 0 0 0 0 0 0 0 -0 -0 0 0 0 0 0 0 0 0 0 0 0 0 0 -0 -0 0 0 0 0 0 0 0 0 0 0 0 0 0 0 0
0 0 0 0 0 0 0 0 0 0 0 0 -0 0 0 0 0 0 0 0 0 0 0 0 0 0 -0 0 0 0 0 0 0 0 0 0 0 0 0 0 0 0 0 0
0 0 0 0 0 0 0 0 0 0 -0 0 0 0 0 0 0 0 0 0 0 0 0 0 0 0 0 0 0 0 0 0 0 0 0 0 0 0 0 0 0 0 0 0
0 0 0 0 0 0 0 0 0 0 0 0 0 0 0 0 0 0 0 0 0 0 0 0 0 0 0 0 0 0 0 0 0 0 0 0 0 0 0 0 0 0 0 0
0 0 0 0 0 0 0 0 0 0 0 0 0 0 0 0 0 0 0 0 0 0 0 0 0 0 0 0 -0 0 0 0 0 0 0 0 0 0 0 0 0 0 0 0
Wind_Speed_500mb
18 16 23 19 23 27 16 17 13 12 18 16 22 20 46 67 70 71 66 62 62 58 53 43 34 32 30 29 25 21 12 8 7 10 10 12 10 14 18 24 29 26 24 27
11 13 21 27 26 7 7 17 12 23 14 15 34 38 49 60 59 61 67 61 63 58 50 43 34 34 32 31 31 22 8 14 12 8 9 11 15 15 17 25 23 27 24 29
10 13 20 18 14 16 11 6 6 10 16 15 17 26 49 56 65 66 66 63 58 51 45 37 30 32 36 35 27 19 8 11 8 4 5 12 14 14 23 26 24 25 23 22
6 7 10 8 7 11 13 19 17 22 24 26 34 49 64 65 62 62 63 63 56 50 43 38 37 34 35 30 28 19 9 7 7 5 7 7 7 13 24 27 24 24 22 19
9 5 10 13 7 12 14 14 38 8 20 37 50 40 48 59 58 66 66 65 59 51 46 42 36 34 29 30 25 20 18 7 10 11 9 10 13 14 24 29 27 23 17 18
6 9 9 16 12 24 3 16 14 19 28 33 47 9 9 64 61 65 65 64 59 51 44 37 30 23 25 26 22 20 20 13 11 12 12 14 13 19 20 27 28 23 18 16
7 7 5 14 22 21 8 12 10 37 48 50 11 17 58 66 65 65 65 62 53 48 41 33 27 25 22 18 19 17 19 16 14 15 18 16 15 18 21 20 24 23 17 14
8 9 8 12 7 10 11 5 33 49 45 51 58 69 72 71 70 68 63 57 49 45 36 30 20 25 24 21 19 17 20 18 19 16 14 11 13 12 17 17 22 24 20 23
3 11 14 14 28 17 12 24 41 56 55 62 63 64 69 69 66 60 55 50 40 36 36 24 25 25 24 17 19 13 15 17 18 16 11 12 10 12 18 17 18 20 16 17
16 12 12 32 31 20 17 28 41 51 56 58 64 62 65 61 57 52 46 42 40 41 35 28 29 22 12 11 8 19 11 11 10 8 4 4 5 8 14 13 17 22 22 22
18 31 5 18 32 27 29 29 42 49 51 59 59 60 60 56 52 47 43 44 42 42 35 26 24 19 11 6 6 17 10 5 1 3 8 7 9 9 8 11 21 18 18 21
13 18 10 31 35 27 30 35 46 50 50 52 52 57 52 52 48 44 44 41 43 41 36 26 21 17 14 6 4 6 9 7 3 6 6 10 8 10 10 15 19 20 22 20
10 33 56 49 37 33 37 38 40 39 41 50 45 51 51 52 45 43 42 41 37 36 27 22 15 15 9 3 6 4 0 3 8 7 13 5 8 12 9 16 21 24 22 18
45 57 47 48 47 39 41 39 37 40 40 47 47 47 50 49 46 44 44 34 29 23 23 18 18 14 10 9 13 3 4 2 10 3 2 5 5 12 13 20 27 27 19 14
26 38 52 50 47 44 42 43 43 42 48 49 48 51 51 49 44 38 33 37 28 23 15 14 14 14 9 9 16 11 3 6 4 2 5 9 9 12 15 18 19 22 25 8
41 48 51 50 48 46 46 44 45 47 47 49 48 47 45 42 39 41 38 38 32 24 16 16 16 13 11 7 13 8 3 10 3 11 4 11 5 13 16 21 19 19 17 11
53 45 48 48 49 48 45 45 47 47 44 42 41 42 37 43 46 44 38 30 21 17 12 7 6 11 9 8 9 7 11 8 11 5 3 10 14 13 20 24 18 23 14 9
54 55 51 51 54 52 45 43 45 43 45 46 48 46 45 47 47 40 31 22 18 14 12 3 4 16 10 8 6 10 15 13 10 4 5 7 12 17 21 23 18 30 13 2
49 53 48 48 53 51 47 45 43 44 48 49 47 41 41 43 39 32 24 18 10 10 7 6 5 10 6 6 6 9 11 10 11 5 7 13 14 14 16 17 21 6 12 4
52 53 52 50 47 45 46 45 47 47 45 41 39 43 43 42 36 26 22 13 8 5 6 6 3 6 1 3 10 10 16 8 7 5 11 13 10 16 19 9 11 3 4 16
65 60 48 48 46 42 42 47 48 48 44 42 44 44 41 36 25 25 23 20 14 14 13 6 3 6 7 12 6 4 10 17 15 12 7 5 4 1 6 8 9 18 27 32
63 53 48 49 47 45 44 47 48 48 46 43 42 36 33 29 30 26 17 15 10 9 9 6 4 8 7 14 9 3 6 2 3 5 10 6 4 9 10 11 19 25 25 30
59 52 54 52 53 52 51 48 47 44 45 42 40 37 38 32 32 25 21 14 9 9 8 8 11 16 10 20 8 3 9 12 12 8 4 2 7 6 7 12 14 16 23 28
60 56 55 53 54 54 53 46 44 41 42 37 33 35 25 24 19 15 10 10 9 12 13 10 14 12 23 8 12 5 17 9 10 7 5 8 13 15 19 18 16 20 27 24
59 59 56 56 55 52 51 48 44 42 40 38 34 27 20 17 19 16 11 11 14 6 6 13 5 24 19 9 14 4 4 5 2 11 10 12 12 15 13 11 13 19 20 21
60 58 54 48 51 53 51 46 46 44 42 38 33 28 25 17 16 13 11 6 8 13 9 4 11 20 6 2 6 5 10 13 10 11 15 14 14 20 18 10 10 13 10 19
55 53 50 46 45 48 47 48 45 43 42 41 33 29 20 14 15 14 8 5 8 13 3 2 4 2 8 12 11 15 20 19 20 21 18 21 26 23 27 24 22 6 6 11
Wind_Direction_500mb
240 279 276 267 285 222 198 212 209 207 158 194 169 151 150 149 149 153 156 160 164 165 168 176 178 183 188 199 208 220 249 171 133 101 71 52 5 7 359 350 352 0 347 356
285 287 274 281 246 96 305 244 98 114 72 133 141 134 133 150 152 151 157 162 163 167 172 179 184 189 197 197 213 226 253 173 181 120 66 24 3 357 342 339 350 358 352 3
244 276 286 289 344 334 227 192 163 134 171 131 138 139 148 151 155 157 162 163 168 175 182 191 198 199 201 202 209 214 237 196 183 124 11 19 11 358 336 334 350 351 352 351
227 6 247 267 313 356 31 93 101 140 158 157 156 163 162 165 164 164 167 168 171 174 176 180 183 189 194 201 209 220 211 215 210 234 303 323 336 317 336 350 346 349 345 349
136 102 321 320 329 44 37 352 306 143 148 146 144 144 155 172 174 175 178 175 173 175 177 181 191 200 206 198 214 220 220 248 216 235 297 307 311 322 349 352 355 356 347 356
125 120 193 231 238 247 163 263 289 150 146 142 134 127 207 170 170 168 169 169 168 172 176 186 191 200 192 196 195 213 233 222 230 232 264 285 304 331 339 355 3 356 1 1
206 159 136 344 268 207 177 229 15 135 138 139 118 186 152 155 154 160 161 162 165 169 175 183 186 188 185 183 209 222 230 239 244 258 267 279 305 333 350 359 7 14 12 13
188 187 139 249 95 129 209 10 131 138 147 119 123 132 138 144 146 151 152 154 163 166 173 178 189 171 169 192 192 217 242 250 264 278 282 309 315 339 349 344 15 9 3 1
309 188 189 135 117 112 102 87 128 129 133 134 132 135 139 140 144 148 152 154 165 172 170 174 155 167 183 212 205 224 243 264 284 283 277 284 308 336 353 8 12 7 8 359
8 272 204 153 129 119 129 101 133 141 141 142 138 144 140 142 146 149 152 157 169 172 171 161 167 175 202 215 242 206 242 261 278 279 306 352 44 24 16 10 353 345 345 344
303 282 107 139 121 120 114 110 125 139 145 146 149 148 150 150 153 155 158 166 176 177 178 176 185 187 187 275 319 198 232 220 36 94 132 83 33 6 352 319 349 358 344 351
252 211 135 142 134 135 127 129 136 134 139 147 155 152 157 157 161 161 162 171 180 186 184 175 170 165 204 253 320 169 176 154 236 267 288 311 305 317 351 328 340 338 337 343
270 268 139 135 135 146 137 137 136 141 147 148 155 160 161 159 163 160 163 172 176 178 174 174 174 193 218 197 212 161 39 167 234 282 325 148 357 337 353 344 334 338 325 330
227 136 120 139 136 143 142 139 141 144 149 154 155 159 161 160 160 164 165 173 171 163 170 188 202 213 183 199 198 191 21 176 165 69 347 36 333 325 333 338 323 336 339 347
166 147 142 141 141 141 140 142 140 142 150 150 160 160 160 157 159 162 170 172 172 172 180 186 208 206 200 198 208 207 148 198 232 336 279 278 335 7 348 354 344 342 348 334
153 141 145 145 146 146 146 147 149 147 151 151 158 157 158 157 157 163 160 158 156 156 159 181 211 211 213 171 213 216 250 225 264 188 263 304 312 330 340 343 331 354 326 308
142 144 151 151 154 152 156 157 160 156 151 154 154 153 149 157 161 156 153 159 168 174 181 189 212 175 190 207 223 223 235 246 245 258 208 315 311 333 331 327 346 347 322 311
178 171 174 168 158 157 158 159 160 159 158 158 159 156 159 168 162 161 165 170 165 176 190 211 208 175 181 208 224 250 212 233 255 242 325 327 328 307 302 338 356 335 304 327
169 168 171 164 161 157 157 158 159 158 159 162 160 159 167 173 174 175 173 166 178 189 180 171 139 179 184 225 261 210 202 219 226 232 299 308 306 327 306 333 345 125 125 154
159 164 161 156 155 155 156 157 157 158 162 163 160 163 174 171 169 165 156 155 189 217 221 196 155 169 309 298 311 254 218 241 233 249 278 302 351 9 3 47 181 250 304 316
161 161 155 152 151 157 162 162 162 163 161 161 168 173 168 166 169 163 158 173 183 217 239 222 239 208 250 279 303 165 231 249 244 271 286 334 349 243 42 20 5 341 335 336
159 157 153 152 154 158 163 164 167 163 162 164 169 170 174 169 165 173 188 205 209 255 228 226 234 235 283 249 213 170 212 237 193 205 133 68 14 337 315 312 317 320 326 342
161 158 156 158 160 160 162 166 170 170 166 168 172 176 170 174 176 181 180 189 228 221 211 234 251 305 205 169 180 295 234 147 154 158 191 311 342 357 338 333 329 323 331 347
158 159 158 162 164 163 163 167 170 168 166 169 176 178 173 172 178 189 203 205 217 227 235 235 282 198 167 154 7 335 167 208 231 262 271 303 314 301 324 318 313 302 318 338
160 160 162 165 167 166 166 166 165 164 161 165 167 166 169 178 185 181 203 227 221 237 125 26 168 177 171 79 43 147 157 158 270 281 262 279 281 280 291 282 299 298 314 333
161 163 166 170 168 166 168 169 164 165 167 166 168 172 166 176 193 204 220 265 212 192 176 57 64 191 196 320 25 255 251 257 280 245 269 275 272 292 277 285 321 315 334 332
158 163 160 158 165 168 171 165 167 171 170 178 172 185 205 213 214 208 202 225 153 182 177 289 297 280 244 271 284 282 284 280 275 272 254 255 285 299 302 294 334 337 308 281
Wind_Speed_850mb
18 16 23 19 23 27 16 17 13 12 18 16 22 20 46 67 70 71 66 62 62 58 53 43 34 32 30 29 25 21 12 8 7 10 10 12 10 14 18 24 29 26 24 27
11 13 21 27 26 7 7 17 12 23 14 15 34 38 49 60 59 61 67 61 63 58 50 43 34 34 32 31 31 22 8 14 12 8 9 11 15 15 17 25 23 27 24 29
10 13 20 18 14 16 11 6 6 10 16 15 17 26 49 56 65 66 66 63 58 51 45 37 30 32 36 35 27 19 8 11 8 4 5 12 14 14 23 26 24 25 23 22
6 7 10 8 7 11 13 19 17 22 24 26 34 49 64 65 62 62 63 63 56 50 43 38 37 34 35 30 28 19 9 7 7 5 7 7 7 13 24 27 24 24 22 19
9 5 10 13 7 12 14 14 38 8 20 37 50 40 48 59 58 66 66 65 59 51 46 42 36 34 29 30 25 20 18 7 10 11 9 10 13 14 24 29 27 23 17 18
6 9 9 16 12 24 3 16 14 19 28 33 47 9 9 64 61 65 65 64 59 51 44 37 30 23 25 26 22 20 20 13 11 12 12 14 13 19 20 27 28 23 18 16
7 7 5 14 22 21 8 12 10 37 48 50 11 17 58 66 65 65 65 62 53 48 41 33 27 25 22 18 19 17 19 16 14 15 18 16 15 18 21 20 24 23 17 14
8 9 8 12 7 10 11 5 33 49 45 51 58 69 72 71 70 68 63 57 49 45 36 30 20 25 24 21 19 17 20 18 19 16 14 11 13 12 17 17 22 24 20 23
3 11 14 14 28 17 12 24 41 56 55 62 63 64 69 69 66 60 55 50 40 36 36 24 25 25 24 17 19 13 15 17 18 16 11 12 10 12 18 17 18 20 16 17
16 12 12 32 31 20 17 28 41 51 56 58 64 62 65 61 57 52 46 42 40 41 35 28 29 22 12 11 8 19 11 11 10 8 4 4 5 8 14 13 17 22 22 22
18 31 5 18 32 27 29 29 42 49 51 59 59 60 60 56 52 47 43 44 42 42 35 26 24 19 11 6 6 17 10 5 1 3 8 7 9 9 8 11 21 18 18 21
13 18 10 31 35 27 30 35 46 50 50 52 52 57 52 52 48 44 44 41 43 41 36 26 21 17 14 6 4 6 9 7 3 6 6 10 8 10 10 15 19 20 22 20
10 33 56 49 37 33 37 38 40 39 41 50 45 51 51 52 45 43 42 41 37 36 27 22 15 15 9 3 6 4 0 3 8 7 13 5 8 12 9 16 21 24 22 18
45 57 47 48 47 39 41 39 37 40 40 47 47 47 50 49 46 44 44 34 29 23 23 18 18 14 10 9 13 3 4 2 10 3 2 5 5 12 13 20 27 27 19 14
26 38 52 50 47 44 42 43 43 42 48 49 48 51 51 49 44 38 33 37 28 23 15 14 14 14 9 9 16 11 3 6 4 2 5 9 9 12 15 18 19 22 25 8
41 48 51 50 48 46 46 44 45 47 47 49 48 47 45 42 39 41 38 38 32 24 16 16 16 13 11 7 13 8 3 10 3 11 4 11 5 13 16 21 19 19 17 11
53 45 48 48 49 48 45 45 47 47 44 42 41 42 37 43 46 44 38 30 21 17 12 7 6 11 9 8 9 7 11 8 11 5 3 10 14 13 20 24 18 23 14 9
54 55 51 51 54 52 45 43 45 43 45 46 48 46 45 47 47 40 31 22 18 14 12 3 4 16 10 8 6 10 15 13 10 4 5 7 12 17 21 23 18 30 13 2
49 53 48 48 53 51 47 45 43 44 48 49 47 41 41 43 39 32 24 18 10 10 7 6 5 10 6 6 6 9 11 10 11 5 7 13 14 14 16 17 21 6 12 4
52 53 52 50 47 45 46 45 47 47 45 41 39 43 43 42 36 26 22 13 8 5 6 6 3 6 1 3 10 10 16 8 7 5 11 13 10 16 19 9 11 3 4 16
65 60 48 48 46 42 42 47 48 48 44 42 44 44 41 36 25 25 23 20 14 14 13 6 3 6 7 12 6 4 10 17 15 12 7 5 4 1 6 8 9 18 27 32
63 53 48 49 47 45 44 47 48 48 46 43 42 36 33 29 30 26 17 15 10 9 9 6 4 8 7 14 9 3 6 2 3 5 10 6 4 9 10 11 19 25 25 30
59 52 54 52 53 52 51 48 47 44 45 42 40 37 38 32 32 25 21 14 9 9 8 8 11 16 10 20 8 3 9 12 12 8 4 2 7 6 7 12 14 16 23 28
60 56 55 53 54 54 53 46 44 41 42 37 33 35 25 24 19 15 10 10 9 12 13 10 14 12 23 8 12 5 17 9 10 7 5 8 13 15 19 18 16 20 27 24
59 59 56 56 55 52 51 48 44 42 40 38 34 27 20 17 19 16 11 11 14 6 6 13 5 24 19 9 14 4 4 5 2 11 10 12 12 15 13 11 13 19 20 21
60 58 54 48 51 53 51 46 46 44 42 38 33 28 25 17 16 13 11 6 8 13 9 4 11 20 6 2 6 5 10 13 10 11 15 14 14 20 18 10 10 13 10 19
55 53 50 46 45 48 47 48 45 43 42 41 33 29 20 14 15 14 8 5 8 13 3 2 4 2 8 12 11 15 20 19 20 21 18 21 26 23 27 24 22 6 6 11
Wind_Direction_850mb
240 279 276 267 285 222 198 212 209 207 158 194 169 151 150 149 149 153 156 160 164 165 168 176 178 183 188 199 208 220 249 171 133 101 71 52 5 7 359 350 352 0 347 356
285 287 274 281 246 96 305 244 98 114 72 133 141 134 133 150 152 151 157 162 163 167 172 179 184 189 197 197 213 226 253 173 181 120 66 24 3 357 342 339 350 358 352 3
244 276 286 289 344 334 227 192 163 134 171 131 138 139 148 151 155 157 162 163 168 175 182 191 198 199 201 202 209 214 237 196 183 124 11 19 11 358 336 334 350 351 352 351
227 6 247 267 313 356 31 93 101 140 158 157 156 163 162 165 164 164 167 168 171 174 176 180 183 189 194 201 209 220 211 215 210 234 303 323 336 317 336 350 346 349 345 349
136 102 321 320 329 44 37 352 306 143 148 146 144 144 155 172 174 175 178 175 173 175 177 181 191 200 206 198 214 220 220 248 216 235 297 307 311 322 349 352 355 356 347 356
125 120 193 231 238 247 163 263 289 150 146 142 134 127 207 170 170 168 169 169 168 172 176 186 191 200 192 196 195 213 233 222 230 232 264 285 304 331 339 355 3 356 1 1
206 159 136 344 268 207 177 229 15 135 138 139 118 186 152 155 154 160 161 162 165 169 175 183 186 188 185 183 209 222 230 239 244 258 267 279 305 333 350 359 7 14 12 13
188 187 139 249 95 129 209 10 131 138 147 119 123 132 138 144 146 151 152 154 163 166 173 178 189 171 169 192 192 217 242 250 264 278 282 309 315 339 349 344 15 9 3 1
309 188 189 135 117 112 102 87 128 129 133 134 132 135 139 140 144 148 152 154 165 172 170 174 155 167 183 212 205 224 243 264 284 283 277 284 308 336 353 8 12 7 8 359
8 272 204 153 129 119 129 101 133 141 141 142 138 144 140 142 146 149 152 157 169 172 171 161 167 175 202 215 242 206 242 261 278 279 306 352 44 24 16 10 353 345 345 344
303 282 107 139 121 120 114 110 125 139 145 146 149 148 150 150 153 155 158 166 176 177 178 176 185 187 187 275 319 198 232 220 36 94 132 83 33 6 352 319 349 358 344 351
252 211 135 142 134 135 127 129 136 134 139 147 155 152 157 157 161 161 162 171 180 186 184 175 170 165 204 253 320 169 176 154 236 267 288 311 305 317 351 328 340 338 337 343
270 268 139 135 135 146 137 137 136 141 147 148 155 160 161 159 163 160 163 172 176 178 174 174 174 193 218 197 212 161 39 167 234 282 325 148 357 337 353 344 334 338 325 330
227 136 120 139 136 143 142 139 141 144 149 154 155 159 161 160 160 164 165 173 171 163 170 188 202 213 183 199 198 191 21 176 165 69 347 36 333 325 333 338 323 336 339 347
166 147 142 141 141 141 140 142 140 142 150 150 160 160 160 157 159 162 170 172 172 172 180 186 208 206 200 198 208 207 148 198 232 336 279 278 335 7 348 354 344 342 348 334
153 141 145 145 146 146 146 147 149 147 151 151 158 157 158 157 157 163 160 158 156 156 159 181 211 211 213 171 213 216 250 225 264 188 263 304 312 330 340 343 331 354 326 308
142 144 151 151 154 152 156 157 160 156 151 154 154 153 149 157 161 156 153 159 168 174 181 189 212 175 190 207 223 223 235 246 245 258 208 315 311 333 331 327 346 347 322 311
178 171 174 168 158 157 158 159 160 159 158 158 159 156 159 168 162 161 165 170 165 176 190 211 208 175 181 208 224 250 212 233 255 242 325 327 328 307 302 338 356 335 304 327
169 168 171 164 161 157 157 158 159 158 159 162 160 159 167 173 174 175 173 166 178 189 180 171 139 179 184 225 261 210 202 219 226 232 299 308 306 327 306 333 345 125 125 154
159 164 161 156 155 155 156 157 157 158 162 163 160 163 174 171 169 165 156 155 189 217 221 196 155 169 309 298 311 254 218 241 233 249 278 302 351 9 3 47 181 250 304 316
161 161 155 152 151 157 162 162 162 163 161 161 168 173 168 166 169 163 158 173 183 217 239 222 239 208 250 279 303 165 231 249 244 271 286 334 349 243 42 20 5 341 335 336
159 157 153 152 154 158 163 164 167 163 162 164 169 170 174 169 165 173 188 205 209 255 228 226 234 235 283 249 213 170 212 237 193 205 133 68 14 337 315 312 317 320 326 342
161 158 156 158 160 160 162 166 170 170 166 168 172 176 170 174 176 181 180 189 228 221 211 234 251 305 205 169 180 295 234 147 154 158 191 311 342 357 338 333 329 323 331 347
158 159 158 162 164 163 163 167 170 168 166 169 176 178 173 172 178 189 203 205 217 227 235 235 282 198 167 154 7 335 167 208 231 262 271 303 314 301 324 318 313 302 318 338
160 160 162 165 167 166 166 166 165 164 161 165 167 166 169 178 185 181 203 227 221 237 125 26 168 177 171 79 43 147 157 158 270 281 262 279 281 280 291 282 299 298 314 333
161 163 166 170 168 166 168 169 164 165 167 166 168 172 166 176 193 204 220 265 212 192 176 57 64 191 196 320 25 255 251 257 280 245 269 275 272 292 277 285 321 315 334 332
158 163 160 158 165 168 171 165 167 171 170 178 172 185 205 213 214 208 202 225 153 182 177 289 297 280 244 271 284 282 284 280 275 272 254 255 285 299 302 294 334 337 308 281